Proserpine, Australia

8:17 PM AEST on May 28, 2017 (GMT +1000)
Whitsunday

Weather History for YBPN - April, 2014

Change the Weather History Date:

Monday, April 7, 2014

  Actual Average Record
Temperature  
Mean Temperature 77 °F -  
Max Temperature 84 °F - - ()
Min Temperature 70 °F - - ()
Cooling Degree Days 12    
Growing Degree Days 27 (Base 50)    
Moisture  
Dew Point 70 °F    
Average Humidity 78    
Maximum Humidity 95    
Minimum Humidity 52    
Precipitation  
Precipitation 0.20 in - - ()
Sea Level Pressure  
Sea Level Pressure 29.94 in    
Wind  
Wind Speed 9 mph ()    
Max Wind Speed 21 mph    
Max Gust Speed -    
Visibility 6.4 miles    
Events      
T = Trace of Precipitation, MM = Missing Value Source: Averaged Metar Reports

Daily Weather History Graph

Daily Weather History Graph

Search for Another Location

Airport or City:

Trip Planner

Search our weather history database for the weather conditions in past years. The results will help you decide how hot, cold, wet, or windy it might be!

Date:

Astronomy

Apr. 07, 2014 Rise Set
Actual Time 6:14 AM AEST 6:01 PM AEST
Civil Twilight 5:52 AM AEST 6:23 PM AEST
Nautical Twilight 5:26 AM AEST 6:49 PM AEST
Astronomical Twilight 5:01 AM AEST 7:14 PM AEST
Moon 12:32 PM AEST (4/7) No Moon Set
Length of Visible Light 12h 31m
Length of Day
11h 46m
Waxing Crescent, 47% of the Moon is Illuminated
Apr 7
Waxing Crescent
Apr 7
First Quarter
Apr 15
Full
Apr 22
Last Quarter
Apr 29
New

Hourly Weather History & Observations

Time (AEST) Temp. Heat Index Dew Point Humidity Pressure Visibility Wind Dir Wind Speed Gust Speed Precip Events Conditions
12:00 AM 72 °F - 69 °F 89% 29.95 in - South 5.8 mph - -  
12:00 AM 71.6 °F - 69.8 °F 94% 29.95 in 6.2 mi South 5.8 mph - N/A   Unknown
1:00 AM 69.8 °F - 68.0 °F 94% 29.92 in 6.2 mi SSW 4.6 mph - N/A   Unknown
2:00 AM 71.6 °F - 69.8 °F 94% 29.92 in 6.2 mi South 5.8 mph - N/A   Scattered Clouds
3:00 AM 71 °F - 70 °F 95% 29.91 in - South 6.9 mph - -  
3:00 AM 71.6 °F - 69.8 °F 94% 29.89 in 6.2 mi South 6.9 mph - N/A   Scattered Clouds
4:00 AM 71.6 °F - 69.8 °F 94% 29.89 in 6.2 mi South 5.8 mph - N/A   Scattered Clouds
5:00 AM 71.6 °F - 69.8 °F 94% 29.92 in 6.2 mi South 6.9 mph - N/A   Unknown
6:00 AM 71 °F - 69 °F 92% 29.93 in - SSE 5.8 mph - -  
6:00 AM 71.6 °F - 69.8 °F 94% 29.92 in 6.2 mi SSE 5.8 mph - N/A   Unknown
7:00 AM 73.4 °F - 69.8 °F 88% 29.95 in 6.2 mi South 6.9 mph - N/A   Unknown
8:00 AM 75.2 °F - 69.8 °F 83% 29.95 in 6.2 mi SSE 9.2 mph - N/A   Unknown
9:00 AM 81 °F - 71 °F 64% 29.98 in - SE 17.3 mph - -  
9:03 AM 80.6 °F 83.9 °F 69.8 °F 70% 29.98 in 6.2 mi ESE 16.1 mph - N/A   Scattered Clouds
10:00 AM 82.4 °F 86.3 °F 69.8 °F 66% 29.98 in 6.2 mi SE 20.7 mph - N/A   Scattered Clouds
11:00 AM 82.4 °F 86.3 °F 69.8 °F 66% 29.98 in 6.2 mi SE 17.3 mph - N/A   Scattered Clouds
12:00 PM 82 °F - 67 °F 52% 29.96 in - ESE 19.6 mph - -  
12:00 PM 82.4 °F 85.4 °F 68.0 °F 62% 29.95 in 6.2 mi ESE 19.6 mph - N/A   Scattered Clouds
1:00 PM 84.2 °F 87.3 °F 68.0 °F 58% 29.92 in 6.2 mi ESE 19.6 mph - N/A   Scattered Clouds
2:00 PM 82.4 °F 86.3 °F 69.8 °F 66% 29.92 in 6.2 mi ESE 17.3 mph - N/A   Scattered Clouds
3:00 PM 83 °F - 69 °F 54% 29.91 in 12 mi ESE 16.1 mph - -   Partly Cloudy
3:00 PM 82.4 °F 86.3 °F 69.8 °F 66% 29.89 in 6.2 mi ESE 17.3 mph - N/A   Unknown
4:00 PM 82.4 °F 84.6 °F 66.2 °F 58% 29.92 in 6.2 mi ESE 16.1 mph - N/A   Unknown
5:00 PM 80.6 °F 83.9 °F 69.8 °F 70% 29.92 in 6.2 mi ESE 13.8 mph - N/A   Unknown
6:00 PM 77 °F - 70 °F 72% 29.93 in - ESE 12.7 mph - -  
6:00 PM 77.0 °F - 69.8 °F 78% 29.92 in 6.2 mi ESE 11.5 mph - N/A   Unknown
7:00 PM 77.0 °F - 71.6 °F 83% 29.95 in 6.2 mi ESE 9.2 mph - N/A   Scattered Clouds
8:00 PM 77.0 °F - 71.6 °F 83% 29.98 in 6.2 mi SE 11.5 mph - N/A   Scattered Clouds
9:00 PM 75 °F - 70 °F 79% 29.98 in - South 8.1 mph - -  
9:00 PM 75.2 °F - 69.8 °F 83% 29.98 in 6.2 mi South 8.1 mph - N/A   Scattered Clouds
10:00 PM 75.2 °F - 69.8 °F 83% 29.98 in 6.2 mi South 8.1 mph - N/A   Mostly Cloudy
11:00 PM 73.4 °F - 69.8 °F 88% 29.98 in 6.2 mi South 6.9 mph - N/A   Scattered Clouds